Location: Williams Lake
(52.1170°N, 122.1500°W)
Time: 23:33:00
(UTC-07:00)

Daily predictions for brighter satellites

Satellite Brightness Start Highest point End
(mag) Time Altitude Azimuth Time Altitude Azimuth Time Altitude Azimuth
Aureole 2 4.2 20:53:15 10° S 20:56:07 49° ESE 20:59:03 10° NE
ARGOS 3.8 20:53:14 10° SE 20:58:12 41° ENE 21:03:13 10° N
Lacrosse 5 2.5 20:55:02 10° WNW 21:00:02 54° NNE 21:05:02 10° E
Envisat 4.2 20:55:20 10° S 21:00:11 44° W 21:05:05 10° NNW
H-2A R/B 2.9 20:56:05 10° SE 21:00:30 33° ENE 21:04:53 10° N
Meteor 2-10 Rocket 4.4 20:56:49 10° SSE 21:02:01 36° E 21:07:18 10° NNE
USA 186 2.7 21:00:00 10° SSW 21:02:08 34° W 21:04:22 10° NNW
SL-16 R/B 3.2 20:58:25 10° SSE 21:02:52 24° ESE 21:07:19 10° NE
Resurs 1-3 3.9 20:58:53 10° S 21:03:15 71° WSW 21:07:40 10° NNW
Cosmos 2341 Rocket 4.1 21:00:06 10° S 21:06:28 87° E 21:12:49 10° N
Cosmos 2218 Rocket 4.2 21:01:42 10° SSE 21:07:53 55° E 21:14:07 10° NNE
Helios 1A 4.4 21:04:42 10° ESE 21:08:01 23° ENE 21:11:19 10° N
Cosmos 1869 Rocket 4.2 21:05:03 10° N 21:09:10 38° ENE 21:13:14 10° SE
SPOT 5 4.2 21:05:56 10° ESE 21:09:22 22° ENE 21:12:43 10° N
USA 234 3.8 21:06:11 10° E 21:12:35 59° N 21:18:59 10° WNW
ERS-2 4.0 21:09:56 10° SSW 21:13:13 30° W 21:16:32 10° NW
Cosmos 2056 Rocket 4.0 21:10:31 10° S 21:15:31 39° ESE 21:20:30 10° NE
Cosmos 2366 rocket 4.1 21:10:14 10° S 21:16:19 57° E 21:22:29 10° NNE
YAOGAN 6 4.1 21:13:48 10° SSW 21:17:13 38° W 21:20:42 10° NNW
Cosmos 405 3.0 21:17:04 10° N 21:20:36 65° ENE 21:24:04 10° SSE
ATLAS CENTAUR R/B 1.2 21:17:34 10° SW 21:21:18 88° NW 21:25:17 10° NE
Cosmos 1869 3.4 21:18:56 10° S 21:22:54 59° E 21:26:53 10° NNE
Cosmos 1140 Rocket 3.8 21:18:13 10° NNW 21:23:20 55° ENE 21:27:58 12° SE
Cosmos 1455 3.3 21:19:47 10° SSW 21:23:32 49° WNW 21:27:20 10° N
Cosmos 2360 Rocket 4.4 21:19:03 10° WSW 21:23:57 30° NW 21:28:53 10° NNE
SL-8 Rocket 4.0 21:17:52 10° S 21:24:09 81° E 21:30:26 10° NNE
Cosmos 1339 Rocket 4.5 21:19:08 10° N 21:25:16 80° ENE 21:31:26 10° SSE
Cosmos 1980 3.7 21:22:08 10° SSW 21:27:49 80° ESE 21:33:32 10° NNE
Cosmos 1190 Rocket 4.1 21:23:00 10° NNW 21:28:20 80° WSW 21:33:35 10° SSE
Cosmos 1515 Rocket 3.8 21:24:46 10° SSW 21:29:14 76° WNW 21:33:43 10° N
Cosmos 1441 Rocket 4.0 21:26:52 10° SSE 21:30:12 31° E 21:33:35 10° NNE
Cosmos 2297 3.8 21:24:34 10° NNW 21:30:16 82° WSW 21:35:55 10° SSE
Cosmos 2098 Rocket 2.7 21:27:26 10° S 21:31:33 59° E 21:34:54 10° NNE
Cosmos 1624 Rocket 4.1 21:26:56 10° S 21:31:58 53° ESE 21:37:03 10° NNE
Cosmos 2369 Rocket 3.3 21:27:24 10° NNW 21:32:36 34° NE 21:37:17 12° ESE
Thor Agena Rocket 4.3 21:31:34 10° N 21:36:42 58° WNW 21:41:52 10° SW
MetOp-A 4.1 21:32:08 10° SSE 21:37:29 78° ENE 21:42:52 10° NNW
Cosmos 1954 Rocket 4.0 21:34:54 10° NNW 21:40:09 74° ENE 21:44:30 15° SSE
Cosmos 2344 4.2 21:36:11 10° S 21:42:42 32° ESE 21:49:51 10° NE
Cosmos 2333 Rocket 2.9 21:38:05 10° SW 21:43:41 59° NW 21:49:18 10° NNE
Cosmos 2228 Rocket 3.9 21:41:00 10° SSW 21:45:19 54° WNW 21:49:40 10° N
CZ-4C R/B 3.4 21:46:07 16° SE 21:48:18 20° ESE 21:52:29 10° ENE
COSMOS 2428 4.3 21:43:43 10° WSW 21:49:03 39° NW 21:54:25 10° NNE
Cosmos 2219 Rocket 3.3 21:44:04 10° SW 21:49:33 48° NW 21:55:01 10° NNE
ATLAS 5 CENTAUR R/B 2.8 21:48:18 10° NW 21:53:47 54° NE 21:58:46 16° ESE
Cosmos 1633 4.1 21:51:15 10° NNE 21:54:08 22° ENE 21:55:25 18° E
Cosmos 2237 Rocket 2.4 21:48:59 10° SW 21:54:36 75° WNW 22:00:17 10° NNE
USA 245 2.1 21:57:08 36° SE 21:57:48 56° ENE 22:00:02 10° N
Cosmos 2278 Rocket 4.2 21:54:23 10° NW 21:58:51 24° WSW 22:03:20 10° SSW
Landsat 7 4.4 21:56:17 20° SE 21:59:15 43° ENE 22:03:45 10° N
Cosmos 1825 4.3 21:57:27 10° NNW 22:00:36 25° W 22:03:44 10° SW
Meteor 1-4 Rocket 3.9 21:58:13 10° N 22:01:09 25° ENE 22:02:18 21° E
Cosmos 405 Rocket 2.7 21:59:02 12° S 22:02:34 66° E 22:06:32 10° NNE
Cosmos 614 Rocket 4.1 21:59:57 10° NNW 22:05:11 75° WSW 22:09:06 18° SSE
Cosmos 1437 Rocket 3.1 22:02:11 10° N 22:05:58 48° ENE 22:07:49 26° SE
Cosmos 1862 3.9 22:05:15 10° NNW 22:09:14 57° W 22:12:37 14° S
BREEZE-M DEB (TANK) 2.1 22:05:38 10° W 22:10:45 55° SSW 22:11:37 35° SE
Helios 1B rocket 3.3 22:07:20 10° NNE 22:11:04 31° E 22:12:16 26° SE
Resurs 01 Rocket 4.2 22:08:56 10° SW 22:12:02 18° W 22:15:08 10° NW
GEOS 3 Rocket 4.5 22:07:40 10° ENE 22:12:15 28° ESE 22:14:24 21° SSE
ERS-1 Rocket 3.1 22:09:58 16° S 22:14:00 75° WSW 22:19:03 10° NNW
Cosmos 389 Rocket 4.4 22:12:57 10° NNE 22:15:11 16° ENE 22:15:55 15° ENE
Cosmos 1420 Rocket 4.4 22:13:19 18° S 22:16:57 43° ESE 22:21:59 10° NE
Terra 2.4 22:14:40 24° ESE 22:17:05 43° ENE 22:21:36 10° N
RESURS DK-1 3.0 22:13:18 10° NNW 22:17:20 45° NE 22:19:17 26° ESE
USA 267 4.2 22:12:49 10° ENE 22:17:53 23° SE 22:19:03 22° SE
SL-8 R/B 3.9 22:14:06 10° WSW 22:18:43 49° SSE 22:21:38 21° ESE
Cosmos 1862 Rocket 4.3 22:21:24 28° SE 22:22:40 34° E 22:26:37 10° NNE
CZ-2C R/B 3.9 22:20:49 22° ESE 22:23:02 33° ENE 22:27:24 10° N
Meteor 1-20 Rocket 4.4 22:18:10 10° N 22:23:32 53° ENE 22:26:23 27° SE
Cosmos 1000 Rocket 4.5 22:17:37 10° N 22:23:51 86° W 22:28:36 18° S
Cosmos 921 Rocket 4.0 22:24:17 26° ESE 22:24:39 27° E 22:28:16 10° NE
DMSP B5D2-2 4.2 22:23:09 10° NNE 22:28:21 58° E 22:31:38 23° S
SPOT 1/Viking Rocket 3.6 22:28:35 24° SSE 22:31:49 86° WSW 22:37:05 10° NNW
Cosmos 1821 Rocket 4.0 22:31:12 16° S 22:36:24 78° E 22:42:41 10° NNE
Cosmos 1943 Rocket 2.4 22:31:59 10° NNW 22:37:29 61° NE 22:40:15 29° SE
ARGOS 4.3 22:33:33 10° SSW 22:38:31 38° W 22:43:31 10° NNW
H-2A R/B 2.9 22:35:51 14° SSW 22:39:52 43° W 22:44:35 10° NNW
Lacrosse 5 1.9 22:38:10 10° WNW 22:43:14 72° SW 22:45:19 35° SE
Helios 1A 3.7 22:40:58 23° SSW 22:43:19 49° W 22:47:25 10° NNW
Cosmos 1707 Rocket 4.0 22:39:58 13° SSW 22:43:44 60° WNW 22:48:03 10° N
SL-16 R/B 2.4 22:40:49 10° SW 22:46:28 71° WNW 22:52:10 10° NNE
SPOT 5 3.1 22:44:45 26° S 22:47:09 58° WSW 22:51:31 10° NNW
Cosmos 1461 3.6 22:43:08 10° NW 22:47:53 57° NE 22:49:56 31° ESE
Cosmos 2123 Rocket 4.0 22:42:25 10° N 22:48:47 87° E 22:52:19 28° S
USA 234 3.3 22:50:39 21° ESE 22:55:22 80° NNE 23:01:56 10° WNW
Cosmos 1733 Rocket 3.3 22:52:02 10° NNW 22:56:23 63° W 22:58:10 33° SSW
Cosmos 1452 Rocket 3.5 22:52:51 10° SSW 22:58:04 82° WNW 23:03:22 10° NNE
CARTOSAT-1 3.6 22:59:22 41° S 23:00:48 75° WSW 23:05:09 10° NNW
ATLAS CENTAUR R/B 3.9 22:57:45 10° WNW 23:00:50 22° NNW 23:04:06 10° NNE
Cosmos 1933 4.3 23:00:17 17° SW 23:03:09 45° WNW 23:07:07 10° N
Cosmos 1606 2.8 23:03:05 53° ESE 23:03:18 54° E 23:07:09 10° NNE
IGS 5A 3.6 23:02:28 43° S 23:03:43 70° WSW 23:07:55 10° NNW
SeaSat 1 4.2 23:02:12 14° E 23:05:19 24° NE 23:09:15 10° NNW
Lacrosse 4 Rocket 4.4 23:06:00 10° N 23:07:46 12° NNE 23:09:33 10° NE
YAOGAN 11 4.1 23:09:15 47° S 23:10:25 74° WSW 23:14:46 10° NNW
Sich 1 Rocket 3.7 23:06:22 10° N 23:10:58 64° ENE 23:11:58 50° SE
Cosmos 1603 3.6 23:10:32 27° SSW 23:13:41 74° ESE 23:19:19 10° NNE
Cosmos 1943 3.4 23:14:02 41° SSE 23:15:14 48° ESE 23:20:42 10° NE
Meteor 1-11 Rocket 4.1 23:11:11 10° N 23:16:42 50° ENE 23:18:26 37° ESE
Cosmos 2369 Rocket 2.5 23:11:22 10° NW 23:16:59 60° WSW 23:19:04 37° S
Cosmos 1782 2.7 23:16:58 62° ESE 23:17:05 62° E 23:21:03 10° NNE
Meteor 2-17 Rocket 4.4 23:14:13 29° S 23:17:37 89° WNW 23:23:47 10° N
Cosmos 1782 Rocket 3.6 23:16:05 10° N 23:20:34 64° ENE 23:21:16 55° ESE
Okean 1-7 3.7 23:22:05 38° E 23:22:05 38° E 23:25:57 10° NNE
Cosmos 2263 4.2 23:17:15 10° NW 23:22:51 71° WSW 23:24:40 43° S
Okean 2 Rocket 3.6 23:19:06 10° N 23:23:22 43° ENE 23:23:53 41° E
CZ-2C R/B 3.0 23:19:13 10° NNE 23:24:23 47° E 23:25:21 43° SE
Cosmos 1605 Rocket 4.0 23:23:44 32° S 23:26:54 90° ESE 23:33:22 10° N
Cosmos 1536 3.9 23:24:38 10° N 23:28:16 32° ENE 23:28:21 32° ENE
Cosmos 1633 3.8 23:25:54 10° NNW 23:29:08 32° W 23:29:39 31° WSW
Meteor 1-27 Rocket 4.4 23:29:13 37° ESE 23:30:17 40° E 23:35:38 10° NNE
Meteor 1-29 3.8 23:29:13 10° N 23:32:29 44° WNW 23:33:02 40° W
Cosmos 2242 Rocket 4.4 23:33:16 28° SW 23:35:13 46° WNW 23:39:30 10° N
Cosmos 1174 4.1 23:36:09 54° E 23:36:09 54° E 23:39:27 10° NE
Cosmos 1602 3.6 23:31:47 10° N 23:35:46 87° W 23:35:53 84° SSW
CZ-4C R/B 2.2 23:31:06 14° SW 23:35:50 89° SE 23:42:12 10° NE
Meteor 1-4 Rocket 4.0 23:33:15 10° NNW 23:36:15 27° W 23:36:34 27° WSW
Cosmos 1271 Rocket 3.2 23:32:58 10° N 23:36:48 50° ENE 23:36:48 50° ENE
ATLAS 5 CENTAUR R/B 2.8 23:33:01 10° NW 23:38:35 48° SW 23:40:19 39° SSW
Cosmos 1447 Rocket 4.5 23:32:45 10° NNW 23:38:54 75° W 23:41:13 40° S
Meteor 1-5 Rocket 4.4 23:36:01 10° N 23:41:17 57° ENE 23:42:34 45° ESE
Nimbus 7 Rocket 4.4 23:35:50 10° NNE 23:41:47 84° WNW 23:44:26 35° SSW
Gblst 52 Del rocket 4.2 23:37:41 10° SW 23:43:28 51° SE 23:48:30 10° ENE
SL-24 R/B 4.4 23:43:33 50° E 23:43:57 52° ENE 23:48:13 10° N
Helios 1B rocket 4.0 23:42:38 10° N 23:46:22 33° WNW 23:48:38 19° WSW
Cosmos 2151 Rocket 4.2 23:42:36 10° N 23:46:57 43° ENE 23:47:21 42° E
Cosmos 1459 Rocket 4.1 23:46:24 45° SE 23:47:53 56° E 23:53:51 10° NNE
BREEZE M DEB (TANK) 2.8 23:40:14 10° W 23:50:12 67° S 23:50:43 61° SSE
Cosmos 389 Rocket 3.3 23:46:55 10° NNW 23:49:53 44° WNW 23:49:53 44° WNW
Cosmos 1703 Rocket 3.4 23:50:08 76° SSW 23:50:28 86° W 23:54:50 10° N
GEOS 3 Rocket 3.7 23:45:19 10° NE 23:50:44 79° NW 23:55:27 13° SW
Cosmos 1908 Rocket 4.4 23:47:34 10° NNW 23:51:45 41° W 23:52:35 37° WSW
Terra 3.2 23:53:33 25° SW 23:54:58 30° W 23:59:10 10° NNW
RESURS DK-1 3.8 23:51:42 10° NW 23:55:11 26° WSW 23:55:11 26° WSW
